Regional Weather Roundup
Issued by NWS

Home | Current Version | Previous Version | Text Only | Print | Product List | Glossary Off
Versions: 1 2 3 4 5 6 7 8 9 10 11 12 13 14 15 16 17 18 19 20 21 22 23 24 25 26 27 28 29 30 31 32 33 34 35 36 37 38 39 40 41 42 43 44 45 46 47 48 49 50

000
ASUS43 KDMX 270208
RWRIA

WEATHER ROUNDUP FOR IOWA
NATIONAL WEATHER SERVICE DES MOINES IA
900 PM CDT THU MAY 26 2016

NOTE: "FAIR" INDICATES FEW OR NO CLOUDS BELOW 12,000 FEET WITH NO
SIGNIFICANT WEATHER AND/OR OBSTRUCTIONS TO VISIBILITY.

* - THESE STATIONS ARE NOT NWS STATIONS...THUS NOT UNDER NWS
QUALITY CONTROL.  THEY ALSO DO NOT REPORT WEATHER SUCH
AS PRECIPITATION OR FOG.

IAZ001>003-012>014-020>022-031>034-043>046-270300-
   NORTHWEST IOWA

CITY           SKY/WX    TMP DP  RH WIND       PRES   REMARKS
CARROLL *      CLOUDY    63  55  77 SE29G35   29.78F
CHEROKEE *     CLOUDY    64  59  82 S9        29.84R
LE MARS *      CLEAR     68  59  73 S13G18    29.82R
ORANGE CITY *  CLEAR     68  59  73 S9        29.82S
SHELDON *      CLEAR     68  59  73 S16       29.82R
SIOUX CITY     CLOUDY    68  57  68 SE15      29.80F
SPENCER        CLOUDY    67  57  70 S17G26    29.81F
STORM LAKE *   CLEAR     64  55  72 S18G25    29.82R
$$

IAZ055>058-069>071-079>083-090>094-270300-
   SOUTHWEST IOWA

CITY           SKY/WX    TMP DP  RH WIND       PRES   REMARKS
ATLANTIC *     DRIZZLE   61  55  82 SE8       29.91F
AUDUBON *      DRIZZLE   63  55  77 SE14G20   29.88F
CLARINDA *       N/A     63  59  88 MISG      29.96S FOG
COUNCIL BLFS * LGT RAIN  61  59  94 E15       29.88F
CRESTON *      CLOUDY    61  59  94 NE13      29.97S
HARLAN  *      CLOUDY    63  55  77 SE18      29.89F
LAMONI         RAIN      62  61  96 N6        29.95R
RED OAK *      LGT RAIN  63  59  88 E12       29.94R
SHENANDOAH *   LGT RAIN  63  63 100 E17G24    29.92R
$$

IAZ047>049-059>061-072>074-084-270300-
   CENTRAL IOWA

CITY           SKY/WX    TMP DP  RH WIND       PRES   REMARKS
AMES           LGT RAIN  62  59  90 S18       29.89F
ANKENY *       LGT RAIN  63  61  94 NW9       29.93F
BOONE *          N/A     63  57  82 S22G28    29.83F
CHARITON *     RAIN      63  63 100 N10       29.92F
DES MOINES     LGT RAIN  64  59  83 N9        29.94F
GRINNELL*      RAIN      64  59  82 SW13      29.98R
KNOXVILLE *    LGT RAIN  64  63  94 N5        29.94F
MARSHALLTOWN   CLOUDY    64  59  83 SW28G40   29.89F
NEWTON *       CLOUDY    64  63  94 SW12      29.97R
PELLA *        HVY RAIN  64  63  94 W9        29.96F
PERRY *        LGT RAIN  64  57  77 SE16      29.86F
$$

IAZ004>006-015-016-023>025-035-036-270300-
   NORTH CENTRAL IOWA

CITY           SKY/WX    TMP DP  RH WIND       PRES   REMARKS
ALGONA *       CLEAR     70  59  68 S14G21    29.84S
CLARION *      CLEAR     66  59  77 S13       29.83F
ESTHERVILLE    CLOUDY    70  57  63 S13G23    29.80F
FORT DODGE *   CLOUDY    66  54  63 S5        29.82F
MASON CITY     CLOUDY    70  63  78 SE7       29.86F
FOREST CITY *  MOCLDY    68  61  77 SE9       29.84F
WEBSTER CITY * CLEAR     66  55  68 SE14      29.78S
IOWA FALLS *     N/A     64  59  82 S15G23    29.89F
$$

IAZ007>011-017>019-026>030-037>042-050>054-066-270300-
   NORTHEAST IOWA

CITY           SKY/WX    TMP DP  RH WIND       PRES   REMARKS
CEDAR RAPIDS   LGT RAIN  70  61  73 W20G35    29.89R
CHARLES CITY * CLEAR     70  66  88 S6        29.87F
CLINTON *      CLOUDY    76  64  66 NE3       29.88R
DECORAH *      CLEAR     70  61  73 CALM      29.86S
DUBUQUE        CLOUDY    69  60  73 NE6       29.87F
MONTICELLO *   CLEAR     75  61  60 W3        29.88R
OELWEIN *      CLEAR     72  64  78 SW10      29.89S
WATERLOO       CLOUDY    74  62  66 SW14      29.87F
$$

IAZ064-065-067-068-078-270300-
   EAST CENTRAL IOWA

CITY           SKY/WX    TMP DP  RH WIND       PRES   REMARKS
DAVENPORT      CLOUDY    77  66  68 W3        29.88R
IOWA CITY      CLOUDY    76  65  68 W17G28    29.90R
MT. PLEASANT * CLOUDY    79  66  65 W15G21    29.92R HX  81
MUSCATINE *    CLOUDY    79  64  61 W10       29.89R HX  81
QUAD CITIES    CLOUDY    78  63  59 SW7       29.86R HX  80
$$

IAZ062-063-075>077-085>089-095>099-270300-
   SOUTHEAST IOWA

CITY           SKY/WX    TMP DP  RH WIND       PRES   REMARKS
BURLINGTON     CLOUDY    75  68  78 CALM      29.88R
FAIRFIELD *      N/A    N/A N/A N/A MISG        N/A
FORT MADISON * PTCLDY    73  66  78 CALM      29.89S
KEOKUK *       MOCLDY    75  66  73 N5        29.87S
OSKALOOSA *    LGT RAIN  64  59  82 NW30G38   29.90F
OTTUMWA        LGT RAIN  65  59  81 NW20G30   29.89F
WASHINGTON *   MOCLDY    73  73 100 NW15G29   29.91S
$$

ABBREVIATIONS USED IN REMARKS
   TC - TEMPERATURES IN CELSIUS
  WCI - WIND CHILL INDEX
   HX - HEAT INDEX
  VSB - VISIBILITY
$$





USA.gov is the U.S. government's official web portal to all federal, state and local government web resources and services.